Asheville, NC

2:19 PM EST on December 07, 2019 (GMT -0500)
Asheville Regional

Weather History for KAVL - November, 2019

Change the Weather History Date:

Friday, November 15, 2019

  Actual Average Record
Temperature  
Mean Temperature 46 °F 48 °F  
Max Temperature 56 °F 59 °F 77 °F (1897)
Min Temperature 37 °F 36 °F 13 °F (1969)
Degree Days  
Heating Degree Days 18 18  
Month to date heating degree days 315 232  
Since 1 July heating degree days 473 567  
Cooling Degree Days 0 0  
Month to date cooling degree days 0 0  
Year to date cooling degree days 1327 862  
Moisture  
Dew Point 27 °F    
Average Humidity 50    
Maximum Humidity 86    
Minimum Humidity 27    
Precipitation  
Precipitation 0.02 in 0.11 in 2.08 in (1989)
Month to date precipitation 0.37 1.63  
Year to date precipitation 50.76 39.96  
Snow  
Snow 0.00 in 0.00 in T in (2007)
Month to date snowfall T 0.0  
Since 1 July snowfall T 0.0  
Since 1 September snowfall T 0.0  
Snow Depth 0.00 in    
Sea Level Pressure  
Sea Level Pressure 30.16 in    
Wind  
Wind Speed 7 mph ()    
Max Wind Speed 17 mph    
Max Gust Speed 23 mph    
Visibility 10.0 miles    
Events Rain    
T = Trace of Precipitation, MM = Missing Value Source: Averaged Metar Reports

Daily Weather History Graph

Daily Weather History Graph

Search for Another Location

Airport or City:

Astronomy

Nov. 15, 2019 Rise Set
Actual Time 7:05 AM EST 5:23 PM EST
Civil Twilight 6:38 AM EST 5:50 PM EST
Nautical Twilight 6:07 AM EST 6:21 PM EST
Astronomical Twilight 5:37 AM EST 6:51 PM EST
Moon 8:02 PM EST (11/15) 9:57 AM EST (11/15)
Length of Visible Light 11h 12m
Length of Day
10h 18m
Waning Gibbous, 90% of the Moon is Illuminated
Nov 15
Waning Gibbous
Nov 19
Last Quarter
Nov 26
New
Dec 4
First Quarter
Dec 12
Full

Hourly Weather History & Observations

Time (EST) Temp. Windchill Dew Point Humidity Pressure Visibility Wind Dir Wind Speed Gust Speed Precip Events Conditions
12:54 AM 37.9 °F 34.4 °F 32.0 °F 79% 30.27 in 9.0 mi NNW 4.6 mph - 0.00 in Rain Light Rain
1:54 AM 37.9 °F - 33.1 °F 83% 30.25 in 10.0 mi Calm Calm - 0.02 in Rain Light Rain
2:54 AM 37.0 °F 33.3 °F 33.1 °F 86% 30.24 in 10.0 mi NW 4.6 mph - 0.00 in Rain Light Rain
4:54 AM 37.9 °F 33.5 °F 33.1 °F 83% 30.20 in 10.0 mi NNW 5.8 mph - N/A   Clear
5:54 AM 39.0 °F 34.0 °F 30.9 °F 73% 30.20 in 10.0 mi North 6.9 mph - N/A   Clear
6:54 AM 39.0 °F 34.0 °F 30.0 °F 70% 30.21 in 10.0 mi North 6.9 mph - N/A   Clear
9:54 AM 44.1 °F 40.8 °F 28.0 °F 53% 30.21 in 10.0 mi North 5.8 mph - N/A   Clear
10:54 AM 46.9 °F - 27.0 °F 46% 30.20 in 10.0 mi North 8.1 mph - N/A   Clear
11:54 AM 48.9 °F - 27.0 °F 43% 30.18 in 10.0 mi NNW 10.4 mph - N/A   Clear
12:54 PM 52.0 °F - 25.0 °F 35% 30.14 in 10.0 mi North 10.4 mph - N/A   Partly Cloudy
1:54 PM 55.0 °F - 26.1 °F 33% 30.10 in 10.0 mi North 8.1 mph - N/A   Clear
2:54 PM 55.9 °F - 25.0 °F 30% 30.08 in 10.0 mi North 8.1 mph - N/A   Clear
3:54 PM 55.9 °F - 23.0 °F 28% 30.08 in 10.0 mi North 10.4 mph 16.1 mph N/A   Clear
4:54 PM 52.0 °F - 23.0 °F 32% 30.09 in 10.0 mi North 15.0 mph 20.7 mph N/A   Clear
5:54 PM 50.0 °F - 21.9 °F 33% 30.11 in 10.0 mi North 12.7 mph 20.7 mph N/A   Clear
6:54 PM 48.9 °F - 21.9 °F 35% 30.12 in 10.0 mi North 11.5 mph - N/A   Clear
7:54 PM 48.9 °F - 24.1 °F 38% 30.13 in 10.0 mi North 9.2 mph - N/A   Mostly Cloudy
8:54 PM 48.0 °F - 24.1 °F 39% 30.13 in 10.0 mi North 11.5 mph - N/A   Partly Cloudy
9:54 PM 46.9 °F - 24.1 °F 41% 30.13 in 10.0 mi North 9.2 mph - N/A   Clear
10:54 PM 46.0 °F 40.2 °F 24.1 °F 42% 30.11 in 10.0 mi North 12.7 mph - N/A   Clear
11:54 PM 46.0 °F 39.6 °F 25.0 °F 44% 30.09 in 10.0 mi North 15.0 mph 21.9 mph N/A   Clear